owner,sensor,date,latitude,longitude,vertical_datum,direction_of_sea_water_velocity,sea_water_speed,upward_sea_water_velocity,qcFlag 
TABS,ioos:station:TABS:A:1,1995-10-01T00:00:00Z,29.5325,-93.8116,2.0,254.1683659,28.95841156,-99999.0,'11111222,11111222,99999999' 
TABS,ioos:station:TABS:A:1,1995-10-01T00:30:00Z,29.5325,-93.8116,2.0,257.9723059,27.88205516,-99999.0,'11111222,11111222,99999999' 
TABS,ioos:station:TABS:A:1,1995-10-01T01:00:00Z,29.5325,-93.8116,2.0,262.7799599,30.79414555,-99999.0,'11111222,11111222,99999999' 
TABS,ioos:station:TABS:A:1,1995-10-01T01:30:00Z,29.5325,-93.8116,2.0,263.8739916,36.26707184,-99999.0,'11111222,11111222,99999999' 
TABS,ioos:station:TABS:A:1,1995-10-01T02:00:00Z,29.5325,-93.8116,2.0,264.3299045,36.23727363,-99999.0,'11111222,11111222,99999999' 
TABS,ioos:station:TABS:A:1,1995-10-01T02:30:00Z,29.5325,-93.8116,2.0,268.5248362,34.58145457,-99999.0,'11111222,11111222,99999999' 
TABS,ioos:station:TABS:A:1,1995-10-01T03:00:00Z,29.5325,-93.8116,2.0,265.0272267,37.84241536,-99999.0,'11111222,11111222,99999999' 
TABS,ioos:station:TABS:A:1,1995-10-01T03:30:00Z,29.5325,-93.8116,2.0,255.4665702,29.09081642,-99999.0,'11111222,11111222,99999999' 
TABS,ioos:station:TABS:A:1,1995-10-01T04:00:00Z,29.5325,-93.8116,2.0,255.7293618,34.44277138,-99999.0,'11111222,11111222,99999999' 
TABS,ioos:station:TABS:A:1,1995-10-01T04:30:00Z,29.5325,-93.8116,2.0,255.0976729,31.3027954,-99999.0,'11111222,11111222,99999999' 
TABS,ioos:station:TABS:A:1,1995-10-01T05:00:00Z,29.5325,-93.8116,2.0,256.6713622,35.5269053,-99999.0,'11111222,11111222,99999999' 
TABS,ioos:station:TABS:A:1,1995-10-01T05:30:00Z,29.5325,-93.8116,2.0,254.0184643,33.01599158,-99999.0,'11111222,11111222,99999999' 
TABS,ioos:station:TABS:A:1,1995-10-01T06:00:00Z,29.5325,-93.8116,2.0,249.0782259,30.4687709,-99999.0,'11111222,11111222,99999999' 
TABS,ioos:station:TABS:A:1,1995-10-01T06:30:00Z,29.5325,-93.8116,2.0,247.002936,32.04684696,-99999.0,'11111222,11111222,99999999' 
TABS,ioos:station:TABS:A:1,1995-10-01T07:00:00Z,29.5325,-93.8116,2.0,247.1183031,27.98182982,-99999.0,'11111222,11111222,99999999' 
TABS,ioos:station:TABS:A:1,1995-10-01T07:30:00Z,29.5325,-93.8116,2.0,251.1105562,23.9391938,-99999.0,'11111222,11111222,99999999' 
TABS,ioos:station:TABS:A:1,1995-10-01T08:00:00Z,29.5325,-93.8116,2.0,248.0891708,26.34278839,-99999.0,'11111222,11111222,99999999' 
TABS,ioos:station:TABS:A:1,1995-10-01T08:30:00Z,29.5325,-93.8116,2.0,248.9765322,22.82963425,-99999.0,'11111222,11111222,99999999' 
TABS,ioos:station:TABS:A:1,1995-10-01T09:00:00Z,29.5325,-93.8116,2.0,253.6474877,25.92883337,-99999.0,'11111222,11111222,99999999' 
TABS,ioos:station:TABS:A:1,1995-10-01T09:30:00Z,29.5325,-93.8116,2.0,248.9928388,24.10185885,-99999.0,'11111222,11111222,99999999' 
TABS,ioos:station:TABS:A:1,1995-10-01T10:00:00Z,29.5325,-93.8116,2.0,251.0698353,27.09540551,-99999.0,'11111222,11111222,99999999' 
TABS,ioos:station:TABS:A:1,1995-10-01T10:30:00Z,29.5325,-93.8116,2.0,245.2742448,24.93606625,-99999.0,'11111222,11111222,99999999' 
TABS,ioos:station:TABS:A:1,1995-10-01T11:00:00Z,29.5325,-93.8116,2.0,250.143099,22.81653129,-99999.0,'11111222,11111222,99999999' 
TABS,ioos:station:TABS:A:1,1995-10-01T11:30:00Z,29.5325,-93.8116,2.0,252.7181211,23.56374334,-99999.0,'11111222,11111222,99999999' 
TABS,ioos:station:TABS:A:1,1995-10-01T12:00:00Z,29.5325,-93.8116,2.0,250.1129212,22.34233873,-99999.0,'11111222,11111222,99999999' 
TABS,ioos:station:TABS:A:1,1995-10-01T12:30:00Z,29.5325,-93.8116,2.0,244.9827441,24.66388858,-99999.0,'11111222,11111222,99999999' 
TABS,ioos:station:TABS:A:1,1995-10-01T13:00:00Z,29.5325,-93.8116,2.0,247.7534327,25.5951597,-99999.0,'11111222,11111222,99999999' 
TABS,ioos:station:TABS:A:1,1995-10-01T13:30:00Z,29.5325,-93.8116,2.0,240.4837045,23.28150554,-99999.0,'11111222,11111222,99999999' 
TABS,ioos:station:TABS:A:1,1995-10-01T14:00:00Z,29.5325,-93.8116,2.0,244.4526767,25.92459257,-99999.0,'11111222,11111222,99999999' 
TABS,ioos:station:TABS:A:1,1995-10-01T14:30:00Z,29.5325,-93.8116,2.0,241.4347786,23.06791061,-99999.0,'11111222,11111222,99999999' 
TABS,ioos:station:TABS:A:1,1995-10-01T15:00:00Z,29.5325,-93.8116,2.0,239.5840633,23.84110945,-99999.0,'11111222,11111222,99999999' 
TABS,ioos:station:TABS:A:1,1995-10-01T15:30:00Z,29.5325,-93.8116,2.0,237.5228087,23.31650274,-99999.0,'11111222,11111222,99999999' 
TABS,ioos:station:TABS:A:1,1995-10-01T16:00:00Z,29.5325,-93.8116,2.0,237.3932542,24.05055509,-99999.0,'11111222,11111222,99999999' 
TABS,ioos:station:TABS:A:1,1995-10-01T16:30:00Z,29.5325,-93.8116,2.0,235.799574,23.05702713,-99999.0,'11111222,11111222,99999999' 
TABS,ioos:station:TABS:A:1,1995-10-01T17:00:00Z,29.5325,-93.8116,2.0,236.7525891,26.90376368,-99999.0,'11111222,11111222,99999999' 
TABS,ioos:station:TABS:A:1,1995-10-01T17:30:00Z,29.5325,-93.8116,2.0,236.827033,31.32519753,-99999.0,'11111222,11111222,99999999' 
TABS,ioos:station:TABS:A:1,1995-10-01T18:00:00Z,29.5325,-93.8116,2.0,236.8868843,29.17871142,-99999.0,'11111222,11111222,99999999' 
TABS,ioos:station:TABS:A:1,1995-10-01T18:30:00Z,29.5325,-93.8116,2.0,242.2811423,33.32416541,-99999.0,'11111222,11111222,99999999' 
TABS,ioos:station:TABS:A:1,1995-10-01T19:00:00Z,29.5325,-93.8116,2.0,243.091278,33.58634395,-99999.0,'11111222,11111222,99999999' 
TABS,ioos:station:TABS:A:1,1995-10-01T19:30:00Z,29.5325,-93.8116,2.0,245.3391863,30.00672091,-99999.0,'11111222,11111222,99999999' 
TABS,ioos:station:TABS:A:1,1995-10-01T20:00:00Z,29.5325,-93.8116,2.0,254.8914668,34.87544982,-99999.0,'11111222,11111222,99999999' 
TABS,ioos:station:TABS:A:1,1995-10-01T20:30:00Z,29.5325,-93.8116,2.0,252.3199394,31.9069914,-99999.0,'11111222,11111222,99999999' 
TABS,ioos:station:TABS:A:1,1995-10-01T21:00:00Z,29.5325,-93.8116,2.0,257.9095393,34.13717768,-99999.0,'11111222,11111222,99999999' 
TABS,ioos:station:TABS:A:1,1995-10-01T21:30:00Z,29.5325,-93.8116,2.0,264.0098186,34.30729951,-99999.0,'11111222,11111222,99999999' 
TABS,ioos:station:TABS:A:1,1995-10-01T22:00:00Z,29.5325,-93.8116,2.0,269.1636125,30.8432829,-99999.0,'11111222,11111222,99999999' 
TABS,ioos:station:TABS:A:1,1995-10-01T22:30:00Z,29.5325,-93.8116,2.0,266.2662547,32.09811521,-99999.0,'11111222,11111222,99999999' 
TABS,ioos:station:TABS:A:1,1995-10-01T23:00:00Z,29.5325,-93.8116,2.0,264.3208933,28.60035839,-99999.0,'11111222,11111222,99999999' 
TABS,ioos:station:TABS:A:1,1995-10-01T23:30:00Z,29.5325,-93.8116,2.0,271.2819889,26.82671057,-99999.0,'11111222,11111222,99999999' 
TABS,ioos:station:TABS:A:1,1995-10-02T00:00:00Z,29.5325,-93.8116,2.0,269.3792968,27.71162391,-99999.0,'11111222,11111222,99999999' 
TABS,ioos:station:TABS:A:1,1995-10-02T00:30:00Z,29.5325,-93.8116,2.0,263.9418005,23.97387119,-99999.0,'11111222,11111222,99999999' 
TABS,ioos:station:TABS:A:1,1995-10-02T01:00:00Z,29.5325,-93.8116,2.0,270.6871117,25.03179778,-99999.0,'11111222,11111222,99999999' 
TABS,ioos:station:TABS:A:1,1995-10-02T01:30:00Z,29.5325,-93.8116,2.0,266.9351387,25.06584329,-99999.0,'11111222,11111222,99999999' 
TABS,ioos:station:TABS:A:1,1995-10-02T02:00:00Z,29.5325,-93.8116,2.0,263.1285023,24.90890002,-99999.0,'11111222,11111222,99999999' 
TABS,ioos:station:TABS:A:1,1995-10-02T02:30:00Z,29.5325,-93.8116,2.0,261.9661622,23.47032169,-99999.0,'11111222,11111222,99999999' 
TABS,ioos:station:TABS:A:1,1995-10-02T03:00:00Z,29.5325,-93.8116,2.0,259.9916227,25.72138799,-99999.0,'11111222,11111222,99999999' 
TABS,ioos:station:TABS:A:1,1995-10-02T03:30:00Z,29.5325,-93.8116,2.0,253.4708744,22.53104747,-99999.0,'11111222,11111222,99999999' 
TABS,ioos:station:TABS:A:1,1995-10-02T04:00:00Z,29.5325,-93.8116,2.0,259.9149397,24.67116738,-99999.0,'11111222,11111222,99999999' 
TABS,ioos:station:TABS:A:1,1995-10-02T04:30:00Z,29.5325,-93.8116,2.0,257.5466554,22.12041817,-99999.0,'11111222,11111222,99999999' 
TABS,ioos:station:TABS:A:1,1995-10-02T05:00:00Z,29.5325,-93.8116,2.0,257.382733,20.46415891,-99999.0,'11111222,11111222,99999999' 
TABS,ioos:station:TABS:A:1,1995-10-02T05:30:00Z,29.5325,-93.8116,2.0,251.189417,21.24463697,-99999.0,'11111222,11111222,99999999' 
TABS,ioos:station:TABS:A:1,1995-10-02T06:00:00Z,29.5325,-93.8116,2.0,241.4330054,20.87077622,-99999.0,'11111222,11111222,99999999' 
TABS,ioos:station:TABS:A:1,1995-10-02T06:30:00Z,29.5325,-93.8116,2.0,240.1564378,20.95942032,-99999.0,'11111222,11111222,99999999' 
TABS,ioos:station:TABS:A:1,1995-10-02T07:00:00Z,29.5325,-93.8116,2.0,242.644263,19.1291453,-99999.0,'11111222,11111222,99999999' 
TABS,ioos:station:TABS:A:1,1995-10-02T07:30:00Z,29.5325,-93.8116,2.0,247.6554899,20.78024061,-99999.0,'11111222,11111222,99999999' 
TABS,ioos:station:TABS:A:1,1995-10-02T08:00:00Z,29.5325,-93.8116,2.0,248.8454949,16.93092437,-99999.0,'11111222,11111222,99999999' 
TABS,ioos:station:TABS:A:1,1995-10-02T08:30:00Z,29.5325,-93.8116,2.0,234.3876389,16.12588602,-99999.0,'11111222,11111222,99999999' 
TABS,ioos:station:TABS:A:1,1995-10-02T09:00:00Z,29.5325,-93.8116,2.0,234.1600604,13.23613992,-99999.0,'11111222,11111222,99999999' 
TABS,ioos:station:TABS:A:1,1995-10-02T09:30:00Z,29.5325,-93.8116,2.0,246.9666521,14.08267375,-99999.0,'11111222,11111222,99999999' 
TABS,ioos:station:TABS:A:1,1995-10-02T10:00:00Z,29.5325,-93.8116,2.0,247.1163337,14.55553846,-99999.0,'11111222,11111222,99999999' 
TABS,ioos:station:TABS:A:1,1995-10-02T10:30:00Z,29.5325,-93.8116,2.0,246.0910366,17.27206126,-99999.0,'11111222,11111222,99999999' 
TABS,ioos:station:TABS:A:1,1995-10-02T11:00:00Z,29.5325,-93.8116,2.0,241.5201681,17.80456683,-99999.0,'11111222,11111222,99999999' 
TABS,ioos:station:TABS:A:1,1995-10-02T11:30:00Z,29.5325,-93.8116,2.0,253.7424896,14.89560002,-99999.0,'11111222,11111222,99999999' 
TABS,ioos:station:TABS:A:1,1995-10-02T12:00:00Z,29.5325,-93.8116,2.0,250.6447971,17.53076439,-99999.0,'11111222,11111222,99999999' 
TABS,ioos:station:TABS:A:1,1995-10-02T12:30:00Z,29.5325,-93.8116,2.0,251.9176695,14.88512345,-99999.0,'11111222,11111222,99999999' 
TABS,ioos:station:TABS:A:1,1995-10-02T13:00:00Z,29.5325,-93.8116,2.0,250.0165193,17.44000287,-99999.0,'11111222,11111222,99999999' 
TABS,ioos:station:TABS:A:1,1995-10-02T13:30:00Z,29.5325,-93.8116,2.0,250.241188,20.26295635,-99999.0,'11111222,11111222,99999999' 
TABS,ioos:station:TABS:A:1,1995-10-02T14:00:00Z,29.5325,-93.8116,2.0,247.3126657,19.7046289,-99999.0,'11111222,11111222,99999999' 
TABS,ioos:station:TABS:A:1,1995-10-02T14:30:00Z,29.5325,-93.8116,2.0,247.8067738,24.46221781,-99999.0,'11111222,11111222,99999999' 
TABS,ioos:station:TABS:A:1,1995-10-02T15:00:00Z,29.5325,-93.8116,2.0,249.9101011,22.99934782,-99999.0,'11111222,11111222,99999999' 
TABS,ioos:station:TABS:A:1,1995-10-02T15:30:00Z,29.5325,-93.8116,2.0,251.452852,21.06397161,-99999.0,'11111222,11111222,99999999' 
TABS,ioos:station:TABS:A:1,1995-10-02T16:00:00Z,29.5325,-93.8116,2.0,246.9192347,27.37088417,-99999.0,'11111222,11111222,99999999' 
TABS,ioos:station:TABS:A:1,1995-10-02T16:30:00Z,29.5325,-93.8116,2.0,247.1551668,25.70635136,-99999.0,'11111222,11111222,99999999' 
TABS,ioos:station:TABS:A:1,1995-10-02T17:00:00Z,29.5325,-93.8116,2.0,245.1472386,20.20071781,-99999.0,'11111222,11111222,99999999' 
TABS,ioos:station:TABS:A:1,1995-10-02T17:30:00Z,29.5325,-93.8116,2.0,245.1472386,26.93429041,-99999.0,'11111222,11111222,99999999' 
TABS,ioos:station:TABS:A:1,1995-10-02T18:00:00Z,29.5325,-93.8116,2.0,253.4114349,27.67165337,-99999.0,'11111222,11111222,99999999' 
TABS,ioos:station:TABS:A:1,1995-10-02T18:30:00Z,29.5325,-93.8116,2.0,258.7851316,32.95932342,-99999.0,'11111222,11111222,99999999' 
TABS,ioos:station:TABS:A:1,1995-10-02T19:00:00Z,29.5325,-93.8116,2.0,260.9785602,31.37812136,-99999.0,'11111222,11111222,99999999' 
TABS,ioos:station:TABS:A:1,1995-10-02T19:30:00Z,29.5325,-93.8116,2.0,240.0769387,30.77192552,-99999.0,'11111222,11111222,99999999' 
TABS,ioos:station:TABS:A:1,1995-10-02T20:00:00Z,29.5325,-93.8116,2.0,254.3548339,34.82000862,-99999.0,'11111222,11111222,99999999' 
TABS,ioos:station:TABS:A:1,1995-10-02T20:30:00Z,29.5325,-93.8116,2.0,258.0800205,32.43944512,-99999.0,'11111222,11111222,99999999' 
TABS,ioos:station:TABS:A:1,1995-10-02T21:00:00Z,29.5325,-93.8116,2.0,253.8408828,33.20165207,-99999.0,'11111222,11111222,99999999' 
TABS,ioos:station:TABS:A:1,1995-10-02T21:30:00Z,29.5325,-93.8116,2.0,247.1924265,31.5247839,-99999.0,'11111222,11111222,99999999' 
TABS,ioos:station:TABS:A:1,1995-10-02T22:00:00Z,29.5325,-93.8116,2.0,251.0970647,29.4481103,-99999.0,'11111222,11111222,99999999' 
TABS,ioos:station:TABS:A:1,1995-10-02T22:30:00Z,29.5325,-93.8116,2.0,244.9672182,20.06470782,-99999.0,'11111222,11111222,99999999' 
TABS,ioos:station:TABS:A:1,1995-10-02T23:00:00Z,29.5325,-93.8116,2.0,252.3139198,18.13721313,-99999.0,'11111222,11111222,99999999' 
TABS,ioos:station:TABS:A:1,1995-10-02T23:30:00Z,29.5325,-93.8116,2.0,259.0728072,17.30371347,-99999.0,'11111222,11111222,99999999' 
TABS,ioos:station:TABS:A:1,1995-10-03T00:00:00Z,29.5325,-93.8116,2.0,244.0640368,18.72596326,-99999.0,'11111222,11111222,99999999' 
TABS,ioos:station:TABS:A:1,1995-10-03T00:30:00Z,29.5325,-93.8116,2.0,240.9420196,18.4068384,-99999.0,'11111222,11111222,99999999' 
TABS,ioos:station:TABS:A:1,1995-10-03T01:00:00Z,29.5325,-93.8116,2.0,233.4982233,19.28239871,-99999.0,'11111222,11111222,99999999' 
TABS,ioos:station:TABS:A:1,1995-10-03T01:30:00Z,29.5325,-93.8116,2.0,239.4618982,17.29954046,-99999.0,'11111222,11111222,99999999' 
TABS,ioos:station:TABS:A:1,1995-10-03T02:00:00Z,29.5325,-93.8116,2.0,256.6853802,14.24282275,-99999.0,'11111222,11111222,99999999' 
TABS,ioos:station:TABS:A:1,1995-10-03T02:30:00Z,29.5325,-93.8116,2.0,258.2838939,16.89190635,-99999.0,'11111222,11111222,99999999' 
TABS,ioos:station:TABS:A:1,1995-10-03T03:00:00Z,29.5325,-93.8116,2.0,248.8067486,18.53344005,-99999.0,'11111222,11111222,99999999' 
TABS,ioos:station:TABS:A:1,1995-10-03T03:30:00Z,29.5325,-93.8116,2.0,239.0461777,19.11180264,-99999.0,'11111222,11111222,99999999' 
TABS,ioos:station:TABS:A:1,1995-10-03T04:00:00Z,29.5325,-93.8116,2.0,237.629574,17.81892533,-99999.0,'11111222,11111222,99999999' 
TABS,ioos:station:TABS:A:1,1995-10-03T04:30:00Z,29.5325,-93.8116,2.0,242.4733439,19.99326136,-99999.0,'11111222,11111222,99999999' 
TABS,ioos:station:TABS:A:1,1995-10-03T05:00:00Z,29.5325,-93.8116,2.0,231.2702883,19.29215903,-99999.0,'11111222,11111222,99999999' 
TABS,ioos:station:TABS:A:1,1995-10-03T05:30:00Z,29.5325,-93.8116,2.0,241.3154922,14.27140147,-99999.0,'11111222,11111222,99999999' 
TABS,ioos:station:TABS:A:1,1995-10-03T06:00:00Z,29.5325,-93.8116,2.0,233.6674397,12.57455367,-99999.0,'11111222,11111222,99999999' 
TABS,ioos:station:TABS:A:1,1995-10-03T06:30:00Z,29.5325,-93.8116,2.0,242.565077,13.26141018,-99999.0,'11111222,11111222,99999999' 
TABS,ioos:station:TABS:A:1,1995-10-03T07:00:00Z,29.5325,-93.8116,2.0,228.0033611,14.03413695,-99999.0,'11111222,11111222,99999999' 
TABS,ioos:station:TABS:A:1,1995-10-03T07:30:00Z,29.5325,-93.8116,2.0,221.1338826,15.62726144,-99999.0,'11111222,11111222,99999999' 
TABS,ioos:station:TABS:A:1,1995-10-03T08:00:00Z,29.5325,-93.8116,2.0,221.3290019,21.42686631,-99999.0,'11111222,11111222,99999999' 
TABS,ioos:station:TABS:A:1,1995-10-03T08:30:00Z,29.5325,-93.8116,2.0,226.1153006,26.87515209,-99999.0,'11111222,11111222,99999999' 
TABS,ioos:station:TABS:A:1,1995-10-03T09:00:00Z,29.5325,-93.8116,2.0,226.0653929,28.13357425,-99999.0,'11111222,11111222,99999999' 
TABS,ioos:station:TABS:A:1,1995-10-03T09:30:00Z,29.5325,-93.8116,2.0,235.8740008,27.36137789,-99999.0,'11111222,11111222,99999999' 
TABS,ioos:station:TABS:A:1,1995-10-03T10:00:00Z,29.5325,-93.8116,2.0,229.1852406,30.32383386,-99999.0,'11111222,11111222,99999999' 
TABS,ioos:station:TABS:A:1,1995-10-03T10:30:00Z,29.5325,-93.8116,2.0,240.5401413,25.15207546,-99999.0,'11111222,11111222,99999999' 
TABS,ioos:station:TABS:A:1,1995-10-03T11:00:00Z,29.5325,-93.8116,2.0,262.1658034,24.06457978,-99999.0,'11111222,11111222,99999999' 
TABS,ioos:station:TABS:A:1,1995-10-03T11:30:00Z,29.5325,-93.8116,2.0,266.0600918,17.32092665,-99999.0,'11111222,11111222,99999999' 
TABS,ioos:station:TABS:A:1,1995-10-03T12:00:00Z,29.5325,-93.8116,2.0,283.0911215,11.17028648,-99999.0,'11111222,11111222,99999999' 
TABS,ioos:station:TABS:A:1,1995-10-03T12:30:00Z,29.5325,-93.8116,2.0,297.0992049,7.200451375,-99999.0,'11133222,11111222,99999999' 
TABS,ioos:station:TABS:A:1,1995-10-03T13:00:00Z,29.5325,-93.8116,2.0,265.7316958,4.031178488,-99999.0,'11133222,11111222,99999999' 
TABS,ioos:station:TABS:A:1,1995-10-03T13:30:00Z,29.5325,-93.8116,2.0,283.9612922,3.688970046,-99999.0,'11133222,11111222,99999999' 
TABS,ioos:station:TABS:A:1,1995-10-03T14:00:00Z,29.5325,-93.8116,2.0,260.4679558,2.717517249,-99999.0,'11133222,11111222,99999999' 
TABS,ioos:station:TABS:A:1,1995-10-03T14:30:00Z,29.5325,-93.8116,2.0,270.0004209,3.28,-99999.0,'11133222,11111222,99999999' 
TABS,ioos:station:TABS:A:1,1995-10-03T15:00:00Z,29.5325,-93.8116,2.0,8.168669981,2.111421322,-99999.0,'11133222,11111222,99999999' 
TABS,ioos:station:TABS:A:1,1995-10-03T15:30:00Z,29.5325,-93.8116,2.0,38.94896093,4.024649053,-99999.0,'11133222,11111222,99999999' 
TABS,ioos:station:TABS:A:1,1995-10-03T16:00:00Z,29.5325,-93.8116,2.0,0.000210459,4.92,-99999.0,'11133222,11111222,99999999' 
TABS,ioos:station:TABS:A:1,1995-10-03T16:30:00Z,29.5325,-93.8116,2.0,0.000210459,0.75,-99999.0,'11133222,11111222,99999999' 
TABS,ioos:station:TABS:A:1,1995-10-03T17:00:00Z,29.5325,-93.8116,2.0,233.5716276,7.780231359,-99999.0,'11133222,11111222,99999999' 
TABS,ioos:station:TABS:A:1,1995-10-03T17:30:00Z,29.5325,-93.8116,2.0,244.7278047,14.66339661,-99999.0,'11111222,11111222,99999999' 
TABS,ioos:station:TABS:A:1,1995-10-03T18:00:00Z,29.5325,-93.8116,2.0,242.7396634,16.59284484,-99999.0,'11111222,11111222,99999999' 
TABS,ioos:station:TABS:A:1,1995-10-03T18:30:00Z,29.5325,-93.8116,2.0,228.4476194,17.51846169,-99999.0,'11111222,11111222,99999999' 
TABS,ioos:station:TABS:A:1,1995-10-03T19:00:00Z,29.5325,-93.8116,2.0,227.8205108,15.08672595,-99999.0,'11111222,11111222,99999999' 
TABS,ioos:station:TABS:A:1,1995-10-03T19:30:00Z,29.5325,-93.8116,2.0,229.6078442,18.3947411,-99999.0,'11111222,11111222,99999999' 
TABS,ioos:station:TABS:A:1,1995-10-03T20:00:00Z,29.5325,-93.8116,2.0,229.041887,17.95568155,-99999.0,'11111222,11111222,99999999' 
TABS,ioos:station:TABS:A:1,1995-10-03T20:30:00Z,29.5325,-93.8116,2.0,227.9198001,20.68144337,-99999.0,'11111222,11111222,99999999' 
TABS,ioos:station:TABS:A:1,1995-10-03T21:00:00Z,29.5325,-93.8116,2.0,224.1639886,21.81656481,-99999.0,'11111222,11111222,99999999' 
TABS,ioos:station:TABS:A:1,1995-10-03T21:30:00Z,29.5325,-93.8116,2.0,228.6102081,31.77681073,-99999.0,'11111222,11111222,99999999' 
TABS,ioos:station:TABS:A:1,1995-10-03T22:00:00Z,29.5325,-93.8116,2.0,229.5570927,41.11390276,-99999.0,'11111222,11111222,99999999' 
TABS,ioos:station:TABS:A:1,1995-10-03T22:30:00Z,29.5325,-93.8116,2.0,239.6374446,48.35154599,-99999.0,'11111222,11111222,99999999' 
TABS,ioos:station:TABS:A:1,1995-10-03T23:00:00Z,29.5325,-93.8116,2.0,229.8027738,52.86510002,-99999.0,'11111222,11111222,99999999' 
TABS,ioos:station:TABS:A:1,1995-10-03T23:30:00Z,29.5325,-93.8116,2.0,223.5354993,49.53486146,-99999.0,'11111222,11111222,99999999' 
TABS,ioos:station:TABS:A:1,1995-10-04T00:00:00Z,29.5325,-93.8116,2.0,233.3978485,32.4863556,-99999.0,'11111222,11111222,99999999' 
TABS,ioos:station:TABS:A:1,1995-10-04T00:30:00Z,29.5325,-93.8116,2.0,249.2038972,25.18045274,-99999.0,'11111222,11111222,99999999' 
TABS,ioos:station:TABS:A:1,1995-10-04T01:00:00Z,29.5325,-93.8116,2.0,262.5043933,22.84519424,-99999.0,'11111222,11111222,99999999' 
TABS,ioos:station:TABS:A:1,1995-10-04T01:30:00Z,29.5325,-93.8116,2.0,258.150415,25.42169939,-99999.0,'11111222,11111222,99999999' 
TABS,ioos:station:TABS:A:1,1995-10-04T02:00:00Z,29.5325,-93.8116,2.0,261.953806,29.79326937,-99999.0,'11111222,11111222,99999999' 
TABS,ioos:station:TABS:A:1,1995-10-04T02:30:00Z,29.5325,-93.8116,2.0,253.5064943,36.2098992,-99999.0,'11111222,11111222,99999999' 
TABS,ioos:station:TABS:A:1,1995-10-04T03:00:00Z,29.5325,-93.8116,2.0,240.6705684,41.36171176,-99999.0,'11111222,11111222,99999999' 
TABS,ioos:station:TABS:A:1,1995-10-04T03:30:00Z,29.5325,-93.8116,2.0,232.7503781,49.23307933,-99999.0,'11111222,11111222,99999999' 
TABS,ioos:station:TABS:A:1,1995-10-04T04:00:00Z,29.5325,-93.8116,2.0,219.9733625,58.91642386,-99999.0,'11111222,11111222,99999999' 
TABS,ioos:station:TABS:A:1,1995-10-04T04:30:00Z,29.5325,-93.8116,2.0,222.2381306,65.603772,-99999.0,'11111222,11111222,99999999' 
TABS,ioos:station:TABS:A:1,1995-10-04T05:00:00Z,29.5325,-93.8116,2.0,227.0149896,62.9360763,-99999.0,'11111222,11111222,99999999' 
TABS,ioos:station:TABS:A:1,1995-10-04T05:30:00Z,29.5325,-93.8116,2.0,225.6314173,66.6983658,-99999.0,'11111222,11111222,99999999' 
TABS,ioos:station:TABS:A:1,1995-10-04T06:00:00Z,29.5325,-93.8116,2.0,223.5755207,54.90966126,-99999.0,'11111222,11111222,99999999' 
TABS,ioos:station:TABS:A:1,1995-10-04T06:30:00Z,29.5325,-93.8116,2.0,226.8405801,62.29290248,-99999.0,'11111222,11111222,99999999' 
TABS,ioos:station:TABS:A:1,1995-10-04T07:00:00Z,29.5325,-93.8116,2.0,216.6889368,73.57636577,-99999.0,'11111222,11111222,99999999' 
TABS,ioos:station:TABS:A:1,1995-10-04T07:30:00Z,29.5325,-93.8116,2.0,215.9059047,72.65627709,-99999.0,'11111222,11111222,99999999' 
TABS,ioos:station:TABS:A:1,1995-10-04T08:00:00Z,29.5325,-93.8116,2.0,213.4146429,68.73092026,-99999.0,'11111222,11111222,99999999' 
TABS,ioos:station:TABS:A:1,1995-10-04T08:30:00Z,29.5325,-93.8116,2.0,211.7000507,65.50243736,-99999.0,'11111222,11111222,99999999' 
TABS,ioos:station:TABS:A:1,1995-10-04T09:00:00Z,29.5325,-93.8116,2.0,209.5256366,61.99053234,-99999.0,'11111222,11111222,99999999' 
TABS,ioos:station:TABS:A:1,1995-10-04T09:30:00Z,29.5325,-93.8116,2.0,213.4530208,61.07856007,-99999.0,'11111222,11111222,99999999' 
TABS,ioos:station:TABS:A:1,1995-10-04T10:00:00Z,29.5325,-93.8116,2.0,216.6619583,57.3943769,-99999.0,'11111222,11111222,99999999' 
TABS,ioos:station:TABS:A:1,1995-10-04T10:30:00Z,29.5325,-93.8116,2.0,218.8678311,56.26821661,-99999.0,'11111222,11111222,99999999' 
TABS,ioos:station:TABS:A:1,1995-10-04T11:00:00Z,29.5325,-93.8116,2.0,231.1832105,43.98338095,-99999.0,'11111222,11111222,99999999' 
TABS,ioos:station:TABS:A:1,1995-10-04T11:30:00Z,29.5325,-93.8116,2.0,224.1090614,47.31115936,-99999.0,'11111222,11111222,99999999' 
TABS,ioos:station:TABS:A:1,1995-10-04T12:00:00Z,29.5325,-93.8116,2.0,213.74521,45.86818069,-99999.0,'11111222,11111222,99999999' 
TABS,ioos:station:TABS:A:1,1995-10-04T12:30:00Z,29.5325,-93.8116,2.0,209.3068486,48.70366003,-99999.0,'11111222,11111222,99999999' 
TABS,ioos:station:TABS:A:1,1995-10-04T13:00:00Z,29.5325,-93.8116,2.0,210.5704943,47.75833435,-99999.0,'11111222,11111222,99999999' 
TABS,ioos:station:TABS:A:1,1995-10-04T13:30:00Z,29.5325,-93.8116,2.0,214.9255593,43.98131421,-99999.0,'11111222,11111222,99999999' 
TABS,ioos:station:TABS:A:1,1995-10-04T14:00:00Z,29.5325,-93.8116,2.0,217.1746199,40.19856963,-99999.0,'11111222,11111222,99999999' 
TABS,ioos:station:TABS:A:1,1995-10-04T14:30:00Z,29.5325,-93.8116,2.0,218.87989,43.44473846,-99999.0,'11111222,11111222,99999999' 
TABS,ioos:station:TABS:A:1,1995-10-04T15:00:00Z,29.5325,-93.8116,2.0,221.5156486,36.41967188,-99999.0,'11111222,11111222,99999999' 
TABS,ioos:station:TABS:A:1,1995-10-04T15:30:00Z,29.5325,-93.8116,2.0,223.7631301,38.99187736,-99999.0,'11111222,11111222,99999999' 
TABS,ioos:station:TABS:A:1,1995-10-04T16:00:00Z,29.5325,-93.8116,2.0,211.5191276,44.74093986,-99999.0,'11111222,11111222,99999999' 
TABS,ioos:station:TABS:A:1,1995-10-04T16:30:00Z,29.5325,-93.8116,2.0,217.3641726,45.18168324,-99999.0,'11111222,11111222,99999999' 
TABS,ioos:station:TABS:A:1,1995-10-04T17:00:00Z,29.5325,-93.8116,2.0,218.2413154,38.51503732,-99999.0,'11111222,11111222,99999999' 
TABS,ioos:station:TABS:A:1,1995-10-04T17:30:00Z,29.5325,-93.8116,2.0,215.3178359,39.43846346,-99999.0,'11111222,11111222,99999999' 
TABS,ioos:station:TABS:A:1,1995-10-04T18:00:00Z,29.5325,-93.8116,2.0,212.8922623,35.66790434,-99999.0,'11111222,11111222,99999999' 